Date String (YYYY-MM-DD hh:mm:ss) UTC,Instrument flags,Ambient pressure (hPa),Sample flow (lpm),Bypass flow (lpm),Sample temperature (°C),Ambient temperature (°C),ASC tube jacket temperature (°C),LED temperature (°C),Box temperature (°C),Sample RH (%),Span deviation,Mass concentration (μg/m³),Mass concentration (μg/m³),Mass concentration (μg/m³)
DateTimeUTC,F1_M11,P_M11,Q1_M11,Q2_M11,T1_M11,T2_M11,T3_M11,T4_M11,T5_M11,U1_M11,ZSPAN_M11,X2_M11,X0_M11,X1_M11
2022-09-11 23:00:00,,0831.3,5.01,0.00,30.2,27.9,00.0,38.9,32.0,16.7,0000.8,0007.88,0011.78,0007.59
2022-09-11 23:01:00,,0831.4,4.99,0.00,30.2,28.2,00.0,38.9,32.0,16.7,0000.7,0007.88,0011.57,0007.58
2022-09-11 23:02:00,,0831.5,5.00,0.00,30.2,28.4,00.0,38.9,32.0,16.5,0000.6,0007.88,0011.70,0007.56
2022-09-11 23:03:00,,0831.5,5.00,0.00,30.2,28.6,00.0,38.9,32.1,16.6,0001.0,0007.88,0011.70,0007.55
2022-09-11 23:04:00,,0831.4,5.01,0.00,30.3,28.8,00.0,39.0,32.1,16.8,0001.1,0007.88,0011.78,0007.55
2022-09-11 23:05:00,,0831.4,5.01,0.00,30.3,28.9,00.0,39.0,32.2,16.9,0001.4,0007.89,0011.98,0007.54
2022-09-11 23:06:00,,0831.4,4.99,0.00,30.3,29.0,00.0,39.0,32.2,16.9,0001.3,0007.87,0012.01,0007.52
2022-09-11 23:07:00,,0831.4,5.02,0.00,30.3,29.1,00.0,39.0,32.2,17.1,0001.5,0007.87,0012.28,0007.51
2022-09-11 23:08:00,,0831.4,4.99,0.00,30.4,29.2,00.0,39.0,32.3,16.6,0001.7,0007.89,0012.55,0007.51
2022-09-11 23:09:00,,0831.4,5.00,0.00,30.4,29.3,00.0,39.0,32.3,16.7,0001.6,0007.90,0012.05,0007.51
2022-09-11 23:10:00,,0831.4,4.98,0.00,30.4,28.7,00.0,39.0,32.3,16.8,0002.0,0007.87,0011.55,0007.50
2022-09-11 23:11:00,,0831.3,5.00,0.00,30.4,27.5,00.0,39.0,32.2,16.9,0002.1,0007.88,0011.94,0007.51
2022-09-11 23:12:00,,0831.2,4.99,0.00,30.4,27.3,00.0,39.0,32.1,17.1,0002.1,0007.88,0011.89,0007.52
2022-09-11 23:13:00,,0831.2,5.00,0.00,30.3,27.5,00.0,38.9,32.0,17.0,0002.1,0007.88,0011.79,0007.54
2022-09-11 23:14:00,,0831.2,5.01,0.00,30.2,27.8,00.0,38.9,32.0,16.9,0001.7,0007.90,0011.89,0007.56
2022-09-11 23:15:00,,0831.2,5.01,0.00,30.2,28.1,00.0,38.9,32.0,16.9,0001.6,0007.90,0012.21,0007.56
2022-09-11 23:16:00,,0831.2,5.00,0.00,30.2,28.3,00.0,38.9,32.0,17.4,0001.9,0007.88,0011.99,0007.55
2022-09-11 23:17:00,,0831.2,4.99,0.00,30.2,28.5,00.0,38.9,32.1,17.0,0002.4,0007.89,0011.98,0007.57
2022-09-11 23:18:00,,0831.2,5.00,0.00,30.2,28.7,00.0,38.9,32.1,16.6,0002.6,0007.87,0011.59,0007.58
2022-09-11 23:19:00,,0831.2,5.01,0.00,30.3,28.9,00.0,38.9,32.1,16.5,0002.4,0007.84,0011.21,0007.57
2022-09-11 23:20:00,,0831.2,5.00,0.00,30.3,29.0,00.0,38.9,32.2,16.8,0002.3,0007.83,0011.15,0007.58
2022-09-11 23:21:00,,0831.2,4.99,0.00,30.3,29.1,00.0,39.0,32.2,16.8,0002.1,0007.83,0010.95,0007.58
2022-09-11 23:22:00,,0831.2,5.00,0.00,30.3,29.2,00.0,39.0,32.2,17.0,0002.1,0007.82,0010.40,0007.58
2022-09-11 23:23:00,,0831.2,5.01,0.00,30.4,29.3,00.0,39.0,32.3,17.4,0002.2,0007.82,0010.60,0007.56
2022-09-11 23:24:00,,0831.2,4.99,0.00,30.4,29.3,00.0,39.0,32.3,17.3,0002.7,0007.82,0010.60,0007.56
2022-09-11 23:25:00,,0831.3,5.00,0.00,30.4,28.7,00.0,39.0,32.3,16.6,0002.8,0007.80,0010.58,0007.56
2022-09-11 23:26:00,,0831.2,5.00,0.00,30.4,27.1,00.0,39.0,32.1,16.8,0002.5,0007.81,0010.81,0007.55
2022-09-11 23:27:00,,0831.2,5.00,0.00,30.3,26.5,00.0,38.9,32.0,17.1,0001.9,0007.80,0010.85,0007.55
2022-09-11 23:28:00,,0831.2,4.99,0.00,30.2,26.7,00.0,38.9,31.9,17.4,0001.5,0007.78,0010.86,0007.53
2022-09-11 23:29:00,,0831.2,5.00,0.00,30.1,27.1,00.0,38.9,31.8,16.5,0001.1,0007.78,0011.15,0007.53
2022-09-11 23:30:00,,0831.3,5.00,0.00,30.1,27.4,00.0,38.8,31.8,16.8,0001.0,0007.81,0011.39,0007.53
2022-09-11 23:31:00,,0831.2,4.99,0.00,30.1,27.7,00.0,38.8,31.8,16.6,0001.5,0007.83,0011.49,0007.53
2022-09-11 23:32:00,,0831.2,5.00,0.00,30.1,28.0,00.0,38.8,31.9,16.6,0001.3,0007.85,0011.49,0007.55
2022-09-11 23:33:00,,0831.2,5.00,0.00,30.1,28.3,00.0,38.8,31.9,16.4,0001.0,0007.86,0011.48,0007.57
2022-09-11 23:34:00,,0831.2,5.00,0.00,30.1,28.5,00.0,38.8,31.9,16.4,0000.9,0007.90,0011.39,0007.60
2022-09-11 23:35:00,,0831.2,5.00,0.00,30.1,28.6,00.0,38.8,32.0,16.8,0001.0,0007.91,0011.42,0007.61
2022-09-11 23:36:00,,0831.2,5.00,0.00,30.1,28.8,00.0,38.8,32.0,17.1,0001.2,0007.93,0011.39,0007.62
2022-09-11 23:37:00,,0831.2,4.99,0.00,30.1,28.9,00.0,38.8,32.0,16.6,0001.8,0007.93,0010.71,0007.64
2022-09-11 23:38:00,,0831.2,5.00,0.00,30.2,29.0,00.0,38.8,32.1,16.5,0001.9,0007.94,0010.68,0007.66
2022-09-11 23:39:00,,0831.2,5.00,0.00,30.2,29.0,00.0,38.9,32.1,16.6,0001.4,0007.96,0010.67,0007.69
2022-09-11 23:40:00,,0831.3,5.01,0.00,30.2,29.1,00.0,38.9,32.1,17.1,0001.4,0008.01,0010.56,0007.72
2022-09-11 23:41:00,,0831.3,5.00,0.00,30.3,29.2,00.0,38.9,32.2,16.9,0001.7,0008.02,0010.33,0007.74
2022-09-11 23:42:00,,0831.2,5.01,0.00,30.3,29.3,00.0,38.9,32.2,17.1,0001.5,0008.00,0010.25,0007.75
2022-09-11 23:43:00,,0831.3,4.99,0.00,30.3,29.3,00.0,38.9,32.3,16.8,0001.7,0008.01,0010.23,0007.75
2022-09-11 23:44:00,,0831.2,5.01,0.00,30.4,29.4,00.0,39.0,32.3,16.6,0001.9,0008.04,0010.77,0007.76
2022-09-11 23:45:00,,0831.2,4.99,0.00,30.4,29.0,00.0,39.0,32.3,16.3,0002.1,0008.04,0010.82,0007.77
2022-09-11 23:46:00,,0831.2,5.01,0.00,30.4,27.8,00.0,39.0,32.2,16.4,0002.0,0008.04,0010.76,0007.79
2022-09-11 23:47:00,,0831.2,5.01,0.00,30.4,27.4,00.0,38.9,32.2,16.3,0001.6,0008.06,0010.82,0007.80
2022-09-11 23:48:00,,0831.2,5.00,0.00,30.3,27.5,00.0,38.9,32.0,16.7,0001.7,0008.06,0010.87,0007.81
2022-09-11 23:49:00,,0831.2,5.00,0.00,30.2,27.8,00.0,38.9,32.0,16.8,0001.8,0008.09,0010.99,0007.83
2022-09-11 23:50:00,,0831.2,5.01,0.00,30.2,28.1,00.0,38.9,32.0,17.3,0002.0,0008.13,0011.16,0007.84
2022-09-11 23:51:00,,0831.2,4.99,0.00,30.2,28.3,00.0,38.9,32.0,17.4,0002.2,0008.12,0011.33,0007.84
2022-09-11 23:52:00,,0831.2,5.00,0.00,30.2,28.5,00.0,38.9,32.1,17.2,0002.3,0008.11,0011.54,0007.85
2022-09-11 23:53:00,,0831.2,5.01,0.00,30.2,28.7,00.0,38.9,32.1,17.3,0002.0,0008.12,0012.39,0007.86
2022-09-11 23:54:00,,0831.2,5.01,0.00,30.2,28.8,00.0,38.9,32.1,17.7,0001.9,0008.15,0012.60,0007.87
2022-09-11 23:55:00,,0831.2,5.01,0.00,30.3,29.0,00.0,38.9,32.2,17.7,0002.1,0008.13,0012.67,0007.86
2022-09-11 23:56:00,,0831.2,4.99,0.00,30.3,29.1,00.0,38.9,32.2,17.6,0001.9,0008.14,0012.42,0007.87
2022-09-11 23:57:00,,0831.2,5.01,0.00,30.3,29.1,00.0,39.0,32.2,17.6,0001.9,0008.16,0012.86,0007.88
2022-09-11 23:58:00,,0831.2,4.98,0.00,30.4,29.2,00.0,39.0,32.3,17.5,0001.8,0008.18,0012.91,0007.87
2022-09-11 23:59:00,,0831.2,5.02,0.00,30.4,29.3,00.0,39.0,32.3,17.2,0001.8,0008.19,0012.98,0007.87
